Location: La Brionne
(46.1728°N, 1.7849°E)
Time: 07:45:05
(UTC+00:00)

Cosmos 2233 Rocket - Pass Details

Date: 16 June 2021
Orbit: 954 x 990 km, 82.9° (Epoch: 01 August)

Event Time Altitude Azimuth Distance (km) Brightness Sun altitude
Rises 21:40:46 0° 355° (N) 3,643 8.2 -14.2°
Reaches altitude 10° 21:43:22 10° 1° (N) 2,694 7.2 -14.4°
Maximum altitude 21:49:19 48° 76° (ENE) 1,232 4.4 -14.9°
Enters shadow 21:53:08 22° 141° (SE) 1,975 5.0 -15.3°
